Regional Weather Roundup
Issued by NWS

Home | Current Version | Previous Version | Graphics & Text | Print | Product List | Glossary On
Versions: 1 2 3 4 5 6 7 8 9 10 11 12 13 14 15 16 17 18 19 20 21 22 23 24 25 26 27 28 29 30 31 32 33 34 35 36 37 38 39 40 41 42 43 44 45 46 47 48 49 50
000
ASUS43 KBIS 181010
RWRND

NORTH DAKOTA REGIONAL WEATHER ROUNDUP
NATIONAL WEATHER SERVICE BISMARCK ND
400 AM CST THU DEC 18 2014

NOTE: "FAIR" INDICATES FEW OR NO CLOUDS BELOW 12,000 FEET WITH NO
SIGNIFICANT WEATHER AND/OR OBSTRUCTIONS TO VISIBILITY.


NDZ001>003-009>011-017-181100-
NORTHWEST NORTH DAKOTA

CITY           SKY/WX    TMP DP  RH WIND       PRES   REMARKS
WILLISTON      CLOUDY    21  16  81 SE5       30.02F WCI  15
MINOT          MOCLDY    12   8  84 SE5       30.09F WCI   4
MINOT AFB      CLOUDY    13  13  98 SE7       30.09F WCI   3
$$

NDZ018>021-031>035-040>046-181100-
SOUTHWEST NORTH DAKOTA

CITY           SKY/WX    TMP DP  RH WIND       PRES   REMARKS
BISMARCK       CLOUDY    16  13  88 SE12      30.13F WCI   3
DICKINSON      CLOUDY    20  16  84 S10       29.98F FOG     WCI   9
GARRISON         N/A     18  14  84 S12       30.07F WCI   5
HETTINGER ARPT CLOUDY    20  17  88 SE10      30.00F FOG     WCI   9
$$

NDZ004>008-012>016-024-026-027-054-181100-
NORTHEAST NORTH DAKOTA

CITY           SKY/WX    TMP DP  RH WIND       PRES   REMARKS
GRAND FORKS    PTCLDY     3   0  87 CALM      30.29F
GRND FRKS AFB  PTCLDY     2   1  93 S2        30.28F
DEVILS LAKE    PTCLDY     9   0  66 SE6       30.17F WCI  -1
$$

NDZ022-023-025-028>030-036>039-047>053-181100-
SOUTHEAST NORTH DAKOTA

CITY           SKY/WX    TMP DP  RH WIND       PRES   REMARKS
FARGO          CLEAR      8   4  83 CALM      30.28F
JAMESTOWN      CLOUDY    11   7  84 SE8       30.19F WCI  -1
$$




USA.gov is the U.S. government's official web portal to all federal, state and local government web resources and services.